Location: Pilipovskiye Korichintsy
(49.1833°N, 27.4667°E)
Time: 22:39:21
(UTC+00:00)

Lacrosse 5 - Pass Details

Date: 28 October 2020
Orbit: 714 x 725 km, 57.0° (Epoch: 30 November)

Event Time Altitude Azimuth Distance (km) Brightness Sun altitude
Rises 17:25:15 0° 298° (WNW) 3,120 6.3 -25.0°
Reaches altitude 10° 17:27:46 10° 306° (NW) 2,199 5.2 -25.4°
Enters shadow 17:32:17 41° 8° (N) 1,028 2.6 -26.1°
